OpenBCM V2.0.3 (Linux)

Packet Radio Mailbox

IZ3LSV

[San Dona' di P. JN]

 Login: GUEST





  
I0OJJ  > AMSAT    26.08.26 02:31l 338 Lines 15960 Bytes #999 (0) @ WW
BID : 45R_IR0EQ
Read: GUEST
Subj: 2Line Orbital Elements
Path: IZ3LSV<I0OJJ<IR0EQ
Sent: 260826/0028z @:IR0EQ.ITA.EU [Rome] $:45R_IR0EQ

>From i0ojj%ir0eq.ita.eu@i0ojj.ampr.org Wed Aug 26 02:30:59 2026
Received: from i0ojj.ampr.org by i0ojj.ampr.org (JNOS2.0q.1) with SMTP
	id AA17064996 ; Wed, 26 Aug 2026 02:30:59 +0200
Message-Id: <45R_IR0EQ@i0ojj.bbs>
>From: i0ojj@ir0eq.ita.eu
X-JNOS-User-Port: Telnet   (i0ojj @ 44.27.18.9)  ->   Sending message

>From i0ojj@rgate.ampr.org Wed Aug 26 02:28:01 2026
Received: from rgate.ampr.org by rgate.ampr.org (JNOS2.0q.1) with SMTP
	id AA5391 ; Wed, 26 Aug 2026 02:28:01 +0200
Received: by rgate.ampr.org with SMTP
	id AA5388 ; Wed, 26 Aug 2026 02:27:02 +0200
Message-Id: <5389@rgate.ampr.org>
>From: i0ojj@rgate.ampr.org

SB KEPS @ AMSAT  $ORB26238.1
2Line Orbital Elements 26238.AMSAT

QST de W1STR

AMSAT Orbital Elements for Amateur Satellites in TLE Format
>From Orbital Analysis Office
New England Sci-Tech STEM Education Center
Natick MA August 26, 2026
To all radio amateurs


These element sets describe the orbits of various satellites 
in use by the amateur radio community. For details see:
www.amsat.org/keplerian-elements-formats/

A daily update of element sets is available at:
www.amsat.org/tle/daily-bulletin.txt
or without bulletin text:
www.amsat.org/tle/dailytle.txt


AO-07
1 07530U 74089B   26237.51062100 -.00000023  00000-0  14777-3 0  9993
2 07530 101.9921 251.4821 0012242   0.8898 166.2006 12.53699270369202
UO-11
1 14781U 84021B   26237.61983705  .00001122  00000-0  11936-3 0  9994
2 14781  97.8131 202.4521 0006599 325.2549  34.8238 14.90944729267470
LO-19
1 20442U 90005G   26237.04320253  .00000074  00000-0  42953-4 0  9993
2 20442  98.8841 260.7408 0011651   9.8689 350.2721 14.34139632912269
AO-27
1 22825U 93061C   26237.64360666  .00000062  00000-0  40515-4 0  9992
2 22825  98.6827 305.0126 0007275 254.2728 105.7652 14.30957310716934
FO-29
1 24278U 96046B   26237.36397844  .00000007  00000-0  46340-4 0  9990
2 24278  98.5187  76.7535 0348794 276.9492  79.2100 13.53277117482527
GO-32
1 25397U 98043D   26237.39393178  .00000046  00000-0  40069-4 0  9996
2 25397  99.0129 231.9166 0001947  49.5442 310.5906 14.24439747461184
ISS
1 25544U 98067A   26237.66055538  .00007716  00000-0  14485-3 0  9994
2 25544  51.6329 316.2335 0007673  83.1052 277.0809 15.49625410582525
NO-44
1 26931U 01043C   26235.97866662  .00000080  00000-0  60923-4 0  9999
2 26931  67.0496  68.9288 0005650 270.3796  89.6659 14.31977234300159
SO-50
1 27607U 02058C   26237.54008956  .00000789  00000-0  11043-3 0  9990
2 27607  64.5511 274.3876 0073049 249.7539 109.5704 14.83176539274742
CO-55
1 27844U 03031E   26237.51147311  .00000229  00000-0  11777-3 0  9994
2 27844  98.6766 245.2071 0009337 351.9382   8.1646 14.24371784201541
RS-22
1 27939U 03042A   26237.89622082  .00000771  00000-0  12672-3 0  9992
2 27939  98.3486  64.2400 0012370  51.2421  81.0751 14.73573412225811
CO-65
1 32785U 08021C   26237.77413053  .00004804  00000-0  29944-3 0  9993
2 32785  97.8339 220.6953 0009622 142.9066 217.2829 15.10010023995692
CO-66
1 32791U 08021J   26237.41702366  .00018518  00000-0  54848-3 0  9997
2 32791  97.7552 238.7512 0004709  80.3531 279.8243 15.34917306997905
RS-30
1 32953U 08025A   26237.87298779  .00000020  00000-0  73457-4 0  9996
2 32953  82.5065 312.1010 0020202 156.8440 203.3555 12.43182147828354
SRMSAT
1 37841U 11058D   26237.64850984  .00000372  00000-0  57963-4 0  9998
2 37841  19.9733 359.0284 0011603 248.5454 227.7610 14.11588440767642
ZACUBE-1
1 39417U 13066B   26236.85384148  .00005302  00000-0  40596-3 0  9997
2 39417  97.8038 199.5196 0041906  23.2843 337.0267 15.01612971691033
Delfi-N3xt
1 39428U 13066N   26237.69828543  .00006793  00000-0  58129-3 0  9990
2 39428  97.8292 157.9651 0072956 336.6021  23.1885 14.95863844685018
GOMX-1
1 39430U 13066Q   26237.84085352  .00001389  00000-0  21410-3 0  9992
2 39430  97.6452  73.9133 0127229 213.1513 146.1676 14.69632469680149
LO-74
1 39440U 13066AA  26237.58439925  .00002289  00000-0  21261-3 0  9997
2 39440  97.8944 186.8951 0057561 155.7912 204.6033 14.94160522687356
AO-73
1 39444U 13066AE  26237.64059103  .00006642  00000-0  40337-3 0  9996
2 39444  97.8340 210.6043 0034557 330.2827  29.6438 15.10351827690147
DTUSAT-2
1 40030U 14033W   26236.77663720  .00005840  00000-0  30956-3 0  9998
2 40030  98.0898 238.9146 0007995  14.7675 345.3788 15.15793640663075
LILACSAT-2
1 40908U 15049K   26237.88008249  .00016831  00000-0  26486-3 0  9997
2 40908  97.4596 277.4576 0006377  16.4724 343.6735 15.53651146606569
Lapan A3
1 41603U 16040E   26237.88979097  .00002972  00000-0  93974-4 0  9998
2 41603  97.1542 231.7839 0011807 120.1386 240.1028 15.33490980565493
CAS-2T
1 41847U 16066G   26237.63328927  .00000444  00000-0  72501-4 0  9994
2 41847  98.3779 312.5742 0340060 278.8674  77.4165 14.44814903514826
TechnoSat
1 42829U 17042E   26237.65539341  .00003554  00000-0  25189-3 0  9990
2 42829  97.4360  32.7216 0016823 213.3902 146.6265 15.05295995497153
AO-91
1 43017U 17073E   26237.57781441  .00008388  00000-0  35626-3 0  9992
2 43017  97.4604 103.3769 0149730  88.8422 272.9959 15.13613062475885
S-Net D
1 43186U 18014G   26237.45919450  .00004173  00000-0  21305-3 0  9992
2 43186  97.5280 141.8153 0009395 129.7316 230.4746 15.17225200469261
S-Net B
1 43187U 18014H   26237.53800047  .00004355  00000-0  22236-3 0  9999
2 43187  97.5285 141.8823 0010077 126.0963 234.1204 15.17193757469270
S-Net A
1 43188U 18014J   26237.65554991  .00003889  00000-0  19872-3 0  9990
2 43188  97.5295 142.2213 0009974 126.2203 233.9954 15.17234494469298
S-Net C
1 43189U 18014K   26237.54229380  .00004456  00000-0  22743-3 0  9992
2 43189  97.5314 142.1940 0011442 121.1023 239.1334 15.17183588467828
Ten-Koh
1 43677U 18084G   26237.49163598  .00002482  00000-0  18841-3 0  9994
2 43677  98.0749  72.7825 0008614 244.0980 115.9357 15.03180528426571
PO-101
1 43678U 18084H   26237.85264203  .00001523  00000-0  12548-3 0  9993
2 43678  98.1204  77.1270 0010488 300.1670  59.8513 15.00676825426661
QO-100
1 43700U 18090A   26237.76419046  .00000142  00000-0  00000+0 0  9995
2 43700   0.0037 176.1245 0002445   5.8616  92.9250  1.00271827 28378
MinXSS-2
1 43758U 18099A   26237.20156109  .00044650  00000-0  74875-3 0  9991
2 43758  97.4484 315.7307 0005984  21.3387 338.8113 15.51680952424819
AO-95
1 43770U 18099N   26237.12870356  .00010853  00000-0  39892-3 0  9991
2 43770  97.4330 297.1627 0010111 103.4878 256.7489 15.28031746423746
SNUSat 2
1 43782U 18099AA  26237.08809410  .00007458  00000-0  32168-3 0  9998
2 43782  97.4011 289.4359 0011334  60.3615 299.8749 15.22774734423516
SnugLite
1 43784U 18099AC  26237.10745642  .00009963  00000-0  36168-3 0  9996
2 43784  97.3816 290.7519 0004117  66.5933 293.5740 15.28503552423847
ITASat 1
1 43786U 18099AE  26237.56502544  .00006102  00000-0  28729-3 0  9996
2 43786  97.3980 287.7064 0013981 108.7356 251.5397 15.19813151423446
EAGLET 1
1 43790U 18099AJ  26237.61977683  .00003921  00000-0  22291-3 0  9991
2 43790  97.4180 285.4479 0012679 104.1785 256.0856 15.13389264422837
ESEO
1 43792U 18099AL  26237.09125631  .00001123  00000-0  84413-4 0  9990
2 43792  97.3941 271.5209 0013987  97.4806 262.8011 15.04426101422167
JO-97
1 43803U 18099AX  26236.62279797  .00015872  00000-0  45910-3 0  9998
2 43803  97.4076 299.7724 0006050  42.5314 317.6397 15.35682704424123
Suomi 100
1 43804U 18099AY  26237.11162415  .00011588  00000-0  40234-3 0  9996
2 43804  97.4135 297.2972 0010454  44.9203 315.2882 15.29877690423950
ISAT
1 43879U 18111D   26237.37901085  .00256857  00000-0  11753-2 0  9998
2 43879  97.5797 178.7363 0007949 101.6851 258.5310 15.83009945422043
UWE-4
1 43880U 18111E   26237.75979178  .00035833  00000-0  63094-3 0  9995
2 43880  97.5821 169.5715 0009871  78.1766 282.0592 15.50315472421548
Sparrow
1 43881U 18111F   26228.98401838  .16116594  28263-5  19760-3 0  9992
2 43881  97.5857 177.1140 0010462 202.8700 157.2139 16.49385238421037
Prox-1
1 44339U 19036A   26237.70834775  .00013069  00000-0  12269-2 0  9994
2 44339  23.9961   9.3013 0005968 115.3036 244.8082 14.92071662383862
Taurus 1
1 44530U 19059C   26237.82915677  .00005027  00000-0  79556-3 0  9994
2 44530  98.6477  47.0403 0009661  94.5048 265.7262 14.72726456368897
TO-108
1 44881U 19093C   26237.84562580  .00000592  00000-0  72747-4 0  9992
2 44881  97.7489 308.3637 0012476 212.6637 147.3809 14.86610819361767
RS-44
1 44909U 19096E   26237.58492434  .00000027  00000-0  67429-4 0  9991
2 44909  82.5210 293.5984 0217080 342.4094  16.9570 12.79748902311226
SALSAT
1 46495U 20068K   26237.26336135  .00007111  00000-0  24232-3 0  9999
2 46495  97.8877 244.5903 0011122  65.4484 294.7913 15.30667520325922
CSS (TIANHE-1)
1 48274U 21035A   26237.47726206  .00016428  00000-0  20691-3 0  9992
2 48274  41.4679 261.3877 0001643 252.1478 107.9182 15.59254302303982
TeikyoSat 4
1 49396U 21102B   26237.52000495  .00001317  00000-0  85353-4 0  9992
2 49396  97.3649 264.3068 0013444  58.7687 301.4859 15.09717008263185
Z-Sat
1 49399U 21102E   26237.85038986  .00002590  00000-0  12756-3 0  9997
2 49399  97.3295 271.0650 0016638  10.4804 349.6774 15.18729815264013
KOSEN 1
1 49402U 21102H   26237.06630760  .00006470  00000-0  24122-3 0  9994
2 49402  97.3144 277.9074 0012215 330.6118  29.4433 15.27701901264536
HO-113
1 50466U 21131B   26237.81949189  .00000329  00000-0  11505-3 0  9997
2 50466  98.4977 329.8315 0002960 241.4504 118.6387 14.41411171245140
SNUGLITE 2
1 52899U 22065F   26237.38381095  .00000821  00000-0  16424-3 0  9996
2 52899  98.2297  22.1330 0007925 157.9342 202.2203 14.64455419221129
UmKA 1 (RS40S)
1 57172U 23091G   26237.82128126  .00005145  00000-0  23149-3 0  9994
2 57172  97.4998 296.2611 0011198 231.1624 128.8613 15.21495301174592
